GLOBALSTAR M083 [+]

Last updated on July 6, 2021, 3:36 p.m. UTC

1 37739U 11033A   21186.84002531 -.00000117  00000-0 -75575-4 0  9992
2 37739  51.9855 116.5946 0000469   9.6683  51.5038 12.62268920464809
UTC
Height (km)
Latitude
Longitude
Inclination
Orbital Period
UTC large
Height (km)
Speed (km/s)
/
Latitude / Longitude
Inclination (degrees)
Orbital Period (minutes)
Azimuth
Elevation
Range (km)
Doppler Factor
iOS Compass Heading
iOS Angle